www.pogodaiklimat.ru

Погода и климат >> Архив погоды >> Корея >> Йонволь


ПОГОДА в Йонволе

  • Прогноз погоды в Йонволе
  • Монитор погоды в Йонволе

АРХИВ ПОГОДЫ в Йонволе

Время (UTC), дата Ветер
(напр.,м/с)
 
Видим.   Явления Облачность Т
(С)
Тd
(С)
f
(%)
Тe
(С)
Тes
(С)
Комфортность P
(гПа)
Po
(гПа)
Тmin
(С)
Tmax
(С)
R
(мм)
R24
(мм)
S
(см)
15 15.09 штиль 0 20 км 8/1 1000 м
[]
+19.0 +15.6 81 +20 +20 1011.6 984.0
18 15.09 штиль 0 20 км ?/? +17.7 +16.3 92 +18 +18 1010.9 983.1
21 15.09 штиль 0 19 км 9/8
[]
+17.0 +16.3 96 +17 +17 1011.3 983.4
00 16.09 З 1 20 км 9/0
[]
+19.2 +15.2 78 +22 +25 комфорт 1011.9 984.3 +17.0
03 16.09 С 4 20 км 1/0
[]
+25.5 +11.6 42 +27 +36 жарко 1010.4 983.3
06 16.09 СВ 2 20 км ясно +27.2 +9.9 34 +28 +37 жарко 1009.1 982.3
09 16.09 С 5 20 км ясно +24.0 +11.9 47 +26 +26 жарко 1010.3 983.3
12 16.09 В 2 20 км 4/0
[]
+19.2 +12.2 64 +21 +21 комфорт 1013.2 985.6 +27.7
15 16.09 СВ 1 20 км ясно +15.4 +13.0 86 +16 +16 1015.1 986.8
18 16.09 20 км 1/0
[]
+13.4 +12.9 97 1015.6 987.2
21 16.09 штиль 0 16 км ясно +11.8 +11.4 97 +11 +11 1017.2 988.5
00 17.09 ЮВ 1 20 км ясно +17.6 +13.1 75 +19 +25 1017.3 989.3 +11.6
03 17.09 З 1 20 км 1/1
[]
+25.1 +13.3 48 +27 +42 жарко 1015.3 988.0
06 17.09 Ю 2 20 км ясно +27.1 +12.3 40 +29 +37 жарко 1012.7 985.7
09 17.09 штиль 0 20 км 9/6 1500 м
[]
+23.3 +14.8 59 +27 +27 душно 1013.5 986.3
12 17.09 В 1 18 км ?/? +19.8 +15.8 78 +23 +23 комфорт 1015.6 987.8 +28.3
15 17.09 штиль 0 20 км 10//
[]
+18.5 +16.1 86 +19 +19 1015.0 987.2
18 17.09 штиль 0 20 км 4/0
[]
+17.3 +16.3 94 +17 +17 1015.3 987.3
21 17.09 16 км н/о +16.2 +15.7 97 +16 +16 1015.8 987.7
00 18.09 В 1 20 км ясно +21.4 +16.5 74 +25 +31 комфорт 1016.4 988.8 +15.9
03 18.09 З 1 19 км ясно +25.5 +11.2 41 +27 +43 жарко 1014.9 987.7
06 18.09 З 2 20 км ясно +27.1 +5.9 26 +26 +35 жарко 1012.8 985.8
09 18.09 З 1 20 км ясно +23.6 +9.5 41 +25 +25 комфорт 1014.3 987.1
12 18.09 В 1 20 км ясно +18.6 +13.4 72 +20 +20 1017.4 989.6 +28.2
15 18.09 штиль 0 15 км ясно +15.4 +13.9 91 +15 +15 1018.9 990.5
18 18.09 штиль 0 8000 м ясно +13.8 +13.4 97 +13 +13 1019.5 991.0
21 18.09 штиль 0 3300 м ясно +13.6 +13.2 97 +13 +13 1020.5 992.0
00 19.09 СЗ 1 17 км 1/1 200 м
[]
+16.4 +13.8 85 +17 +23 1020.7 992.5 +12.9
03 19.09 СЗ 2 19 км 4/0
[]
+21.9 +10.9 50 +24 +35 комфорт 1018.6 991.0
06 19.09 СЗ 1 20 км 4/0
[]
+24.3 +9.4 39 +25 +33 комфорт 1016.0 988.9
09 19.09 З 1 20 км 8/1
[]
+21.7 +11.1 51 +24 +24 комфорт 1015.9 988.4
12 19.09 С 1 20 км 9/0
[]
+17.8 +13.7 77 +19 +19 1017.5 989.6 +25.1
15 19.09 штиль 0 20 км 8/0
[]
+14.7 +13.2 91 +14 +14 1018.1 989.6
18 19.09 15 км ?/? +14.0 +13.3 96 1018.0 989.6
21 19.09 штиль 0 5000 м 9//
[]
+13.5 +13.1 97 +13 +13 1018.1 989.6
00 20.09 штиль 0 19 км 8/0
[]
+16.6 +13.6 82 +16 +17 1018.8 990.6 +13.4
03 20.09 ЮВ 1 20 км 9/3
[]
+22.8 +11.8 50 +25 +32 комфорт 1016.9 989.5
06 20.09 ЮВ 4 20 км ?/? +22.0 +12.2 54 +24 +24 комфорт 1017.0 989.5
09 20.09 В 2 20 км 10/9
[]
+19.0 +11.7 63 +20 +20 1018.2 990.4
12 20.09 СВ 1 20 км ?/? +17.6 +11.8 69 +19 +19 1019.8 991.8 +25.8
15 20.09 В 1 20 км 10//
[]
+16.2 +12.5 79 +17 +17 1020.6 992.3
18 20.09 В 1 20 км ?/? +15.9 +13.0 83 +17 +17 1019.8 991.5
21 20.09 Ю 1 20 км 10/5
[]
+15.4 +13.7 90 +16 +16 1019.8 991.4
00 21.09 штиль 0 20 км ?/? +16.2 +14.7 91 +16 +16 1021.1 992.8 +15.1 0.1
03 21.09 ЮЗ 1 13 км 10/1 1500 м
[]
+17.2 +16.2 94 +18 +25 1020.3 992.2
06 21.09 В 1 2500 м ?/? +17.4 +17.0 97 +18 +22 1019.8 991.7 10
09 21.09 штиль 0 9000 м 10//
[]
+15.3 +14.9 97 +15 +15 1020.9 992.5
12 21.09 7000 м ?/? +14.3 +13.9 97 1021.2 992.8 +17.8 27
15 21.09 штиль 0 15 км 10//
[]
+14.5 +14.1 97 +14 +14 1020.5 991.9
18 21.09 штиль 0 12 км ?/? +14.7 +14.2 97 +14 +14 1018.7 990.2 8
21 21.09 Ю 1 10 км 10/0
[]
+15.0 +14.5 97 +15 +15 1017.7 989.3
00 22.09 СВ 9 15 км н/о +16.5 +14.4 87 +15 +15 1015.9 987.8 +14.4 16
03 22.09 В 3 12 км 10/1 1000 м
[]
+17.1 +14.7 86 +17 +22 1014.3 986.3
06 22.09 В 8 19 км ?/? +15.9 +14.4 91 +14 +15 1012.6 984.5 14
09 22.09 СВ 5 11 км 10/1 600 м
[]
+15.9 +14.0 88 +15 +15 1011.3 983.2
12 22.09 СВ 9 20 км ?/? +16.4 +12.9 80 +15 +15 1008.7 980.8 +17.4 24

 

Местоположение метеостанции Йонволь (Корея): широта 37.18 долгота 128.46 высота над уровнем моря 237 м.

В архиве по умолчанию представлена погода в Йонволе за последнюю неделю. Архивные данные за месяц целиком и за предыдущие месяцы, начиная с января 2011 года, Вы можете получить, выбрав интересующий диапазон дат из раскрывающегося списка и нажав кнопку "Ввод!".


*Определитесь, кто Вы:
робот инопланетянин человек

Внимание! Время в таблицах - всемирное. Для получения местного времени необходимо прибавить поправку, которая равна 9 ч.

Смотрите также архив погоды в соседних городах и на ближайших метеорологических станциях:

Погода в Вонджу (Корея) (48 км)
Погода на Перевале Daegwallyeong (Корея) (62 км)
Погода в Донгхэ (Корея) (69 км)
Погода в Андоне (Корея) (71 км)
Погода в Канныне (Корея) (74 км)
Погода в Ульджине (Корея) (87 км)
Погода в Ичхоне (Корея) (87 км)
Погода в Санджу (Корея) (91 км)
Погода в Чунчоне (Корея) (102 км)
Погода в Чхунчхоне (Корея) (103 км)

Пояснения к столбцам:

Ветер - указаны скорость ветра в м/с - средняя за 10 мин, порывы в срок и между сроками (в фигурных скобках) и направление, откуда дует ветер: С - северный, СВ - северо-восточный, В - восточный, ЮВ - юго-восточный, Ю - южный, ЮЗ - юго-западный, З - западный, СЗ - северо-западный.
Видимость - горизонтальная дальность видимости в метрах или километрах. При видимости от 1 до 10 км при отсутствии осадков обычно наблюдается дымка, при ухудшении видимости до 1 км и менее - туман. В сухую погоду видимость может ухудшаться дымом, пылью или мглою.
Явления - указаны атмосферные явления, наблюдавшиеся в срок или в последний час перед сроком; фигурными скобками обозначены явления, наблюдавшиеся между сроками (за 1-3 часа до срока); квадратными скобками обозначены град или гололедные отложения с указанием их диаметра в мм.
Облачность - указаны через наклонную черту общая и нижняя облачность в баллах и высота нижней границы облаков в метрах; квадратными скобками обозначены формы облаков: Ci - перистые, Cs - перисто-слоистые, Cc - перисто-кучевые, Ac - высококучевые, As - высокослоистые, Sc - слоисто-кучевые, Ns - слоисто-дождевые, Cu - кучевые, Cb - кучево-дождевые. Подробнее классификацию облаков см. в Атласе облаков (PDF).
T - Температура воздуха - температура, измеренная на высоте 2 м над землей.
Td - Температура точки росы - температура, при понижении до которой содержащийся в воздухе водяной пар достигнет насыщения.
f - Относительная влажность воздуха - влажноcть воздуха, измеренная на высоте 2 м над землей.
Te - Эффективная температура - температура, которую ощущает одетый по сезону человек в тени. Характеристика душности погоды. При расчете учитывается влияние влажности воздуха и скорости ветра на теплоощущения человека.
Tes - Эффективная температура на солнце - температура, которую ощущает человек, с поправкой на солнечный нагрев. Характеристика знойности погоды. Зависит от высоты солнца над горизонтом, облачности и скорости ветра. Ночью, в пасмурную погоду, а также при ветре 12 м/с и более поправка равна нулю.
P - Атмосферное давление - приведенное к уровню моря атмосферное давление.
Po - Атмосферное давление - измеренное на уровне метеостанции атмосферное давление.
Tmin - Минимальная температура - минимум температуры воздуха на высоте 2 м над землей.
Tmax - Максимальная температура - максимум температуры воздуха на высоте 2 м над землей.
R - Количество осадков - Количество выпавших осадков за период времени, мм. При наведении курсора мыши на число - период времени, за который выпало указанное количество осадков.
R24 - Количество осадков - Количество выпавших осадков за 24 часа, мм.
S - Снежный покров - Высота снежного покрова, см. При наведении курсора мыши на число - состояние снежного покрова и степень покрытия местности в баллах.